Ravenna, OH

9:01 PM EDT on March 23, 2017 (GMT -0400)
Ravenna

Weather History for KPOV - October, 2013

Change the Weather History Date:

Wednesday, October 23, 2013

  Actual Average (KCAK) Record (KCAK)
Temperature  
Mean Temperature 38 °F -  
Max Temperature 44 °F 60 °F 79 °F (1920)
Min Temperature 32 °F 39 °F 23 °F (1969)
Degree Days  
Heating Degree Days 27    
Moisture  
Dew Point 33 °F    
Average Humidity 84    
Maximum Humidity 100    
Minimum Humidity 56    
Precipitation  
Precipitation 0.06 in - - ()
Sea Level Pressure  
Sea Level Pressure 29.83 in    
Wind  
Wind Speed 4 mph (West)    
Max Wind Speed 16 mph    
Max Gust Speed 23 mph    
Visibility 10 miles    
Events Rain    
Averages and records for this station are not official NWS values.
T = Trace of Precipitation, MM = Missing Value Source: NWS Daily Summary

Daily Weather History Graph

Daily Weather History Graph

Search for Another Location

Airport or City:

Trip Planner

Search our weather history database for the weather conditions in past years. The results will help you decide how hot, cold, wet, or windy it might be!

Date:

Astronomy

Oct. 23, 2013 Rise Set
Actual Time 7:45 AM EDT 6:31 PM EDT
Civil Twilight 7:17 AM EDT 7:00 PM EDT
Nautical Twilight 6:45 AM EDT 7:32 PM EDT
Astronomical Twilight 6:13 AM EDT 8:04 PM EDT
Moon 10:00 PM EDT (10/23) 12:03 PM EDT (10/23)
Length of Visible Light 11h 42m
Length of Day
10h 46m
Waning Gibbous, 79% of the Moon is Illuminated
Oct 23
Waning Gibbous
Oct 26
Last Quarter
Nov 3
New
Nov 10
First Quarter
Nov 17
Full

Hourly Weather History & Observations

Time (EDT) Temp. Windchill Dew Point Humidity Pressure Visibility Wind Dir Wind Speed Gust Speed Precip Events Conditions
12:15 AM 41.9 °F - 28.6 °F 59% 29.86 in 10.0 mi Calm Calm - N/A   Overcast
12:35 AM 41.9 °F 36.3 °F 28.0 °F 58% 29.86 in 10.0 mi WNW 9.2 mph - N/A   Overcast
12:56 AM 40.5 °F 35.8 °F 28.8 °F 63% 29.86 in 10.0 mi West 6.9 mph - N/A   Overcast
1:16 AM 40.6 °F 38.6 °F 29.7 °F 65% 29.85 in 10.0 mi WSW 3.5 mph - N/A   Overcast
1:35 AM 40.5 °F - 30.6 °F 68% 29.85 in 10.0 mi Calm Calm - N/A   Overcast
1:55 AM 40.5 °F 37.3 °F 30.6 °F 68% 29.84 in 10.0 mi WSW 4.6 mph - N/A   Overcast
2:16 AM 39.9 °F 36.7 °F 30.0 °F 68% 29.83 in 10.0 mi SW 4.6 mph - N/A   Overcast
2:35 AM 39.6 °F - 30.7 °F 71% 29.83 in 10.0 mi Calm Calm - N/A   Overcast
2:55 AM 39.2 °F 37.0 °F 30.9 °F 72% 29.83 in 10.0 mi SW 3.5 mph - N/A   Overcast
3:16 AM 38.1 °F - 30.7 °F 75% 29.82 in 10.0 mi Calm Calm - N/A   Scattered Clouds
3:35 AM 36.9 °F - 31.3 °F 80% 29.81 in 10.0 mi Calm Calm - N/A   Scattered Clouds
3:56 AM 36.0 °F - 31.1 °F 82% 29.80 in 10.0 mi Calm Calm - N/A   Scattered Clouds
4:16 AM 35.6 °F 32.8 °F 32.4 °F 88% 29.79 in 10.0 mi WSW 3.5 mph - N/A   Mostly Cloudy
4:35 AM 35.6 °F - 32.0 °F 87% 29.79 in 10.0 mi Calm Calm - N/A   Scattered Clouds
4:55 AM 34.2 °F - 33.6 °F 98% 29.78 in 10.0 mi Calm Calm - N/A   Clear
5:16 AM 33.3 °F - 33.3 °F 100% 29.78 in 10.0 mi Calm Calm - N/A   Clear
5:36 AM 32.5 °F - 32.7 °F 100% 29.78 in 10.0 mi Calm Calm - N/A   Clear
5:55 AM 32.9 °F - 32.9 °F 100% 29.78 in 10.0 mi Calm Calm - N/A   Clear
6:16 AM 33.8 °F - 34.0 °F 100% 29.78 in 10.0 mi Calm Calm - N/A   Mostly Cloudy
6:35 AM 34.0 °F - 34.2 °F 100% 29.77 in 10.0 mi Calm Calm - N/A   Scattered Clouds
6:56 AM 33.8 °F - 34.0 °F 100% 29.77 in 10.0 mi Calm Calm - N/A   Clear
7:16 AM - - - N/A% 29.77 in 10.0 mi Calm Calm - N/A   Scattered Clouds
7:35 AM 34.0 °F - 34.2 °F 100% 29.77 in 10.0 mi Calm Calm - N/A   Scattered Clouds
7:55 AM - - - N/A% 29.77 in 10.0 mi Calm Calm - N/A   Scattered Clouds
8:16 AM 35.4 °F - 35.6 °F 100% 29.78 in 10.0 mi Calm Calm - N/A   Scattered Clouds
8:35 AM 36.0 °F 32.1 °F 36.1 °F 100% 29.78 in 10.0 mi West 4.6 mph - N/A   Overcast
8:56 AM 36.5 °F 33.9 °F 36.3 °F 99% 29.79 in 10.0 mi West 3.5 mph - N/A   Overcast
9:16 AM 36.9 °F 32.2 °F 36.5 °F 99% 29.79 in 10.0 mi West 5.8 mph - N/A Rain Light Rain
9:35 AM 36.7 °F 30.5 °F 36.5 °F 99% 29.79 in 7.0 mi West 8.1 mph - N/A Rain Rain
9:56 AM 36.5 °F 29.7 °F 36.5 °F 100% 29.79 in 7.0 mi West 9.2 mph - 0.01 in Rain Light Rain
10:16 AM 35.8 °F 28.8 °F 36.0 °F 100% 29.79 in 7.0 mi West 9.2 mph - 0.01 in Rain Light Rain
10:35 AM 35.6 °F 30.7 °F 35.8 °F 100% 29.80 in 7.0 mi West 5.8 mph - 0.03 in Rain Light Rain
10:56 AM 36.1 °F 31.4 °F 36.3 °F 100% 29.80 in 7.0 mi West 5.8 mph - 0.04 in Rain Light Rain
11:16 AM 36.5 °F 31.0 °F 36.5 °F 100% 29.80 in 7.0 mi West 6.9 mph - N/A Rain Light Rain
11:35 AM 36.7 °F 32.0 °F 36.9 °F 100% 29.80 in 7.0 mi West 5.8 mph - 0.01 in Rain Rain
11:55 AM 37.4 °F 31.4 °F 37.6 °F 100% 29.80 in 10.0 mi West 8.1 mph - 0.01 in   Light Drizzle
12:16 PM - - - N/A% 29.80 in 10.0 mi West 4.6 mph - N/A   Overcast
12:35 PM 39.2 °F 35.0 °F 39.2 °F 100% 29.80 in 10.0 mi WNW 5.8 mph - N/A   Light Drizzle
12:55 PM 39.7 °F 34.3 °F 39.6 °F 99% 29.80 in 10.0 mi WNW 8.1 mph - N/A   Overcast
1:16 PM 41.0 °F 35.8 °F 38.7 °F 91% 29.79 in 10.0 mi West 8.1 mph - N/A   Overcast
1:35 PM 41.7 °F 36.7 °F 38.7 °F 89% 29.78 in 10.0 mi WNW 8.1 mph - N/A   Overcast
1:56 PM 43.2 °F 36.6 °F 37.0 °F 79% 29.78 in 10.0 mi West 12.7 mph 16.1 mph N/A   Overcast
2:16 PM 42.6 °F 37.8 °F 34.5 °F 73% 29.79 in 10.0 mi NW 8.1 mph - N/A   Overcast
2:35 PM 42.4 °F 36.1 °F 33.4 °F 70% 29.79 in 10.0 mi WNW 11.5 mph 18.4 mph N/A   Overcast
2:56 PM 43.2 °F 37.0 °F 32.0 °F 65% 29.79 in 10.0 mi NW 11.5 mph 18.4 mph N/A   Overcast
3:16 PM 43.0 °F 37.2 °F 31.5 °F 64% 29.80 in 10.0 mi WNW 10.4 mph 17.3 mph N/A   Overcast
3:35 PM 43.9 °F 38.3 °F 30.9 °F 60% 29.80 in 10.0 mi NW 10.4 mph 16.1 mph N/A   Mostly Cloudy
3:55 PM 44.1 °F 39.0 °F 30.0 °F 58% 29.81 in 10.0 mi WNW 9.2 mph 17.3 mph N/A   Overcast
4:16 PM 43.7 °F 39.1 °F 30.0 °F 59% 29.82 in 10.0 mi WNW 8.1 mph 19.6 mph N/A   Overcast
4:35 PM 43.2 °F 37.9 °F 30.0 °F 60% 29.82 in 10.0 mi WNW 9.2 mph 19.6 mph N/A   Overcast
4:56 PM 43.2 °F 36.6 °F 29.3 °F 58% 29.83 in 10.0 mi WNW 12.7 mph 20.7 mph N/A   Overcast
5:16 PM 43.2 °F 35.9 °F 28.6 °F 56% 29.83 in 10.0 mi West 15.0 mph 23.0 mph N/A   Overcast
5:35 PM 43.0 °F 36.4 °F 29.1 °F 58% 29.84 in 10.0 mi West 12.7 mph 16.1 mph N/A   Scattered Clouds
5:55 PM 43.0 °F 35.4 °F 29.3 °F 59% 29.85 in 10.0 mi NW 16.1 mph 20.7 mph N/A   Mostly Cloudy
6:16 PM 37.0 °F 29.8 °F 33.6 °F 87% 29.87 in 10.0 mi NW 10.4 mph 16.1 mph N/A Rain Rain
6:35 PM 36.7 °F - 36.3 °F 99% 29.86 in 10.0 mi Calm Calm - N/A   Overcast
6:55 PM 36.7 °F - 36.7 °F 100% 29.87 in 10.0 mi Calm Calm - N/A   Overcast
7:16 PM 36.7 °F 34.1 °F 36.9 °F 100% 29.87 in 10.0 mi SW 3.5 mph - N/A   Overcast
7:35 PM 35.6 °F - 35.8 °F 100% 29.88 in 10.0 mi Calm Calm - N/A   Mostly Cloudy
7:55 PM 35.2 °F 28.1 °F 35.4 °F 100% 29.89 in 10.0 mi West 9.2 mph - N/A   Scattered Clouds
8:16 PM 38.5 °F 32.1 °F 30.4 °F 73% 29.88 in 10.0 mi West 9.2 mph - N/A   Overcast
8:36 PM 37.6 °F 34.0 °F 30.7 °F 76% 29.89 in 10.0 mi WSW 4.6 mph - N/A   Scattered Clouds
8:55 PM 36.9 °F 33.1 °F 31.5 °F 81% 29.89 in 10.0 mi SW 4.6 mph - N/A   Clear
9:16 PM 36.7 °F 32.9 °F 31.8 °F 83% 29.89 in 10.0 mi WSW 4.6 mph - N/A   Scattered Clouds
9:35 PM 36.9 °F 31.4 °F 31.8 °F 82% 29.90 in 10.0 mi WSW 6.9 mph - N/A   Scattered Clouds
9:56 PM 36.5 °F 31.0 °F 31.6 °F 83% 29.91 in 10.0 mi NW 6.9 mph - N/A   Mostly Cloudy
10:16 PM 36.5 °F 31.0 °F 32.0 °F 84% 29.91 in 10.0 mi WNW 6.9 mph - N/A   Overcast
10:35 PM 35.8 °F 33.0 °F 32.0 °F 86% 29.92 in 10.0 mi NW 3.5 mph - N/A   Overcast
10:55 PM 35.8 °F - 33.8 °F 92% 29.92 in 10.0 mi Calm Calm - N/A   Overcast
11:16 PM 35.8 °F - 35.6 °F 99% 29.92 in 10.0 mi Calm Calm - N/A   Overcast
11:36 PM 35.6 °F - 35.8 °F 100% 29.92 in 10.0 mi Calm Calm - N/A   Overcast
11:55 PM 35.1 °F - 35.4 °F 100% 29.92 in 10.0 mi Calm Calm - N/A   Mostly Cloudy